TimeCDT,TemperatureF,Dew PointF,Humidity,Sea Level PressureIn,VisibilityMPH,Wind Direction,Wind SpeedMPH,Gust SpeedMPH,PrecipitationIn,Events,Conditions,WindDirDegrees,DateUTC
12:12 AM,33.8,17.6,52,29.81,10.0,SSE,4.6,-,N/A,,Clear,160,2012-10-08 05:12:00
12:31 AM,33.8,17.6,52,29.80,10.0,SSE,4.6,-,N/A,,Clear,160,2012-10-08 05:31:00
12:51 AM,33.8,17.6,52,29.80,10.0,SSE,4.6,-,N/A,,Clear,160,2012-10-08 05:51:00
1:12 AM,33.8,17.6,52,29.79,10.0,Calm,Calm,-,N/A,,Clear,0,2012-10-08 06:12:00
1:31 AM,33.8,17.6,52,29.79,10.0,SSE,4.6,-,N/A,,Clear,150,2012-10-08 06:31:00
1:51 AM,33.8,17.6,52,29.79,10.0,SSE,4.6,-,N/A,,Clear,150,2012-10-08 06:51:00
2:12 AM,33.8,19.4,56,29.79,10.0,SSE,3.5,-,N/A,,Clear,160,2012-10-08 07:12:00
2:31 AM,32.0,19.4,60,29.79,10.0,Calm,Calm,-,N/A,,Clear,0,2012-10-08 07:31:00
2:52 AM,32.0,19.4,60,29.78,10.0,Calm,Calm,-,N/A,,Clear,0,2012-10-08 07:52:00
3:11 AM,32.0,19.4,60,29.77,10.0,Calm,Calm,-,N/A,,Clear,0,2012-10-08 08:11:00
3:31 AM,32.0,19.4,60,29.77,10.0,Calm,Calm,-,N/A,,Clear,0,2012-10-08 08:31:00
3:52 AM,32.0,19.4,60,29.76,10.0,SE,3.5,-,N/A,,Clear,140,2012-10-08 08:52:00
4:11 AM,32.0,19.4,60,29.75,10.0,Calm,Calm,-,N/A,,Clear,0,2012-10-08 09:11:00
4:31 AM,32.0,19.4,60,29.75,10.0,SSE,4.6,-,N/A,,Scattered Clouds,150,2012-10-08 09:31:00
4:52 AM,33.8,21.2,60,29.74,10.0,SSE,4.6,-,N/A,,Scattered Clouds,150,2012-10-08 09:52:00
5:11 AM,33.8,19.4,56,29.73,10.0,SSE,3.5,-,N/A,,Scattered Clouds,150,2012-10-08 10:11:00
5:31 AM,33.8,21.2,60,29.73,10.0,SSE,4.6,-,N/A,,Scattered Clouds,150,2012-10-08 10:31:00
5:51 AM,35.6,21.2,56,29.72,10.0,SSE,4.6,-,N/A,,Scattered Clouds,150,2012-10-08 10:51:00
6:11 AM,35.6,21.2,56,29.71,10.0,SSE,3.5,-,N/A,,Scattered Clouds,150,2012-10-08 11:11:00
6:32 AM,35.6,21.2,56,29.71,10.0,SSE,3.5,-,N/A,,Mostly Cloudy,150,2012-10-08 11:32:00
6:51 AM,35.6,21.2,56,29.70,10.0,SE,4.6,-,N/A,,Scattered Clouds,140,2012-10-08 11:51:00
7:12 AM,35.6,21.2,56,29.71,10.0,SSE,3.5,-,N/A,,Scattered Clouds,160,2012-10-08 12:12:00
7:31 AM,35.6,21.2,56,29.70,10.0,SE,3.5,-,N/A,,Mostly Cloudy,140,2012-10-08 12:31:00
7:51 AM,35.6,21.2,56,29.70,10.0,SE,4.6,-,N/A,,Overcast,130,2012-10-08 12:51:00
8:12 AM,37.4,21.2,52,29.70,10.0,SSE,5.8,-,N/A,,Overcast,150,2012-10-08 13:12:00
8:31 AM,37.4,23.0,56,29.69,10.0,SSE,4.6,-,N/A,,Mostly Cloudy,150,2012-10-08 13:31:00
8:51 AM,37.4,23.0,56,29.68,10.0,SE,5.8,-,N/A,,Scattered Clouds,140,2012-10-08 13:51:00
9:12 AM,41.0,23.0,49,29.67,10.0,SSE,6.9,-,N/A,,Clear,160,2012-10-08 14:12:00
9:31 AM,41.0,23.0,49,29.66,10.0,SSE,6.9,-,N/A,,Clear,160,2012-10-08 14:31:00
9:51 AM,42.8,23.0,46,29.65,10.0,SSE,8.1,-,N/A,,Clear,150,2012-10-08 14:51:00
10:12 AM,44.6,23.0,43,29.65,10.0,SSE,8.1,-,N/A,,Mostly Cloudy,150,2012-10-08 15:12:00
10:31 AM,44.6,23.0,43,29.62,10.0,SE,8.1,-,N/A,,Mostly Cloudy,140,2012-10-08 15:31:00
10:51 AM,46.4,23.0,40,29.62,10.0,SSE,8.1,-,N/A,,Scattered Clouds,150,2012-10-08 15:51:00
11:12 AM,46.4,24.8,43,29.62,10.0,SSE,10.4,-,N/A,,Scattered Clouds,160,2012-10-08 16:12:00
11:31 AM,50.0,24.8,37,29.60,10.0,South,10.4,-,N/A,,Scattered Clouds,170,2012-10-08 16:31:00
11:51 AM,50.0,26.6,40,29.58,10.0,SSE,11.5,-,N/A,,Scattered Clouds,150,2012-10-08 16:51:00
12:11 PM,51.8,26.6,38,29.59,10.0,South,11.5,-,N/A,,Scattered Clouds,170,2012-10-08 17:11:00
12:51 PM,50.0,32.0,50,29.55,10.0,SSE,11.5,-,N/A,Rain,Rain,160,2012-10-08 17:51:00
1:11 PM,51.8,32.0,47,29.55,10.0,SSE,9.2,-,N/A,,Mostly Cloudy,160,2012-10-08 18:11:00
1:32 PM,53.6,30.2,41,29.56,10.0,South,11.5,18.4,N/A,,Scattered Clouds,180,2012-10-08 18:32:00
1:51 PM,53.6,28.4,38,29.55,10.0,South,9.2,-,N/A,,Scattered Clouds,190,2012-10-08 18:51:00
2:11 PM,53.6,33.8,47,29.56,10.0,SW,16.1,25.3,N/A,Rain,Rain,220,2012-10-08 19:11:00
2:32 PM,51.8,35.6,54,29.56,10.0,WSW,9.2,18.4,N/A,Rain,Light Rain,240,2012-10-08 19:32:00
2:51 PM,51.8,35.6,54,29.55,10.0,SW,5.8,-,N/A,Rain,Rain,230,2012-10-08 19:51:00
3:11 PM,50.0,37.4,62,29.56,10.0,WSW,4.6,-,N/A,Rain,Light Rain,250,2012-10-08 20:11:00
3:32 PM,51.8,35.6,54,29.56,10.0,SW,5.8,-,N/A,,Mostly Cloudy,230,2012-10-08 20:32:00
3:51 PM,53.6,35.6,51,29.56,10.0,WSW,11.5,-,N/A,,Overcast,250,2012-10-08 20:51:00
4:11 PM,55.4,35.6,47,29.55,10.0,WSW,10.4,16.1,N/A,,Scattered Clouds,240,2012-10-08 21:11:00
4:32 PM,55.4,37.4,51,29.56,10.0,West,10.4,23.0,N/A,,Scattered Clouds,260,2012-10-08 21:32:00
4:51 PM,55.4,39.2,54,29.57,10.0,West,12.7,24.2,N/A,,Mostly Cloudy,270,2012-10-08 21:51:00
5:11 PM,55.4,39.2,54,29.58,10.0,West,13.8,18.4,N/A,,Overcast,280,2012-10-08 22:11:00
5:32 PM,53.6,39.2,58,29.59,10.0,West,12.7,23.0,N/A,,Mostly Cloudy,280,2012-10-08 22:32:00
5:51 PM,53.6,37.4,54,29.62,10.0,West,18.4,28.8,N/A,,Scattered Clouds,280,2012-10-08 22:51:00
6:11 PM,51.8,35.6,54,29.63,10.0,West,20.7,32.2,N/A,,Mostly Cloudy,280,2012-10-08 23:11:00
6:32 PM,50.0,35.6,58,29.65,10.0,West,15.0,31.1,N/A,,Scattered Clouds,280,2012-10-08 23:32:00
6:51 PM,48.2,35.6,62,29.66,10.0,West,15.0,21.9,N/A,,Scattered Clouds,280,2012-10-08 23:51:00
7:11 PM,48.2,35.6,62,29.67,10.0,West,13.8,21.9,N/A,,Scattered Clouds,280,2012-10-09 00:11:00
7:32 PM,48.2,35.6,62,29.67,10.0,WNW,10.4,-,N/A,,Clear,290,2012-10-09 00:32:00
7:51 PM,46.4,35.6,66,29.68,10.0,West,8.1,-,N/A,,Clear,280,2012-10-09 00:51:00
8:11 PM,46.4,33.8,62,29.68,10.0,West,4.6,-,N/A,,Clear,280,2012-10-09 01:11:00
8:32 PM,44.6,33.8,66,29.68,10.0,Calm,Calm,-,N/A,,Clear,0,2012-10-09 01:32:00
8:51 PM,41.0,33.8,76,29.68,10.0,Calm,Calm,-,N/A,,Clear,0,2012-10-09 01:51:00
9:11 PM,39.2,33.8,81,29.68,10.0,Calm,Calm,-,N/A,,Clear,0,2012-10-09 02:11:00
9:32 PM,37.4,33.8,87,29.68,10.0,Calm,Calm,-,N/A,,Clear,0,2012-10-09 02:32:00
9:51 PM,37.4,33.8,87,29.69,10.0,Calm,Calm,-,N/A,,Clear,0,2012-10-09 02:51:00
10:11 PM,37.4,32.0,81,29.69,10.0,Calm,Calm,-,N/A,,Clear,0,2012-10-09 03:11:00
10:51 PM,37.4,32.0,81,29.69,10.0,Calm,Calm,-,N/A,,Clear,0,2012-10-09 03:51:00
11:11 PM,39.2,33.8,81,29.70,10.0,Calm,Calm,-,N/A,,Clear,0,2012-10-09 04:11:00
11:31 PM,41.0,33.8,76,29.70,10.0,SW,3.5,-,N/A,,Clear,230,2012-10-09 04:31:00
11:52 PM,42.8,33.8,70,29.70,10.0,WSW,4.6,-,N/A,,Clear,240,2012-10-09 04:52:00